www.pogodaiklimat.ru

Погода и климат >> Архив погоды >> Норвегия >> Fagernes


ПОГОДА в Fagernes

  • Прогноз погоды в Fagernes
  • Монитор погоды в Fagernes
  • Климат города

АРХИВ ПОГОДЫ в Fagernes

Время (UTC), дата Ветер
(напр.,м/с)
 
Видим.   Явления Облачность Т
(С)
Тd
(С)
f
(%)
Тe
(С)
Тes
(С)
Комфортность P
(гПа)
Po
(гПа)
Тmin
(С)
Tmax
(С)
R
(мм)
S
(см)
07 16.03 СВ 1-2
{3}
н/о н/о -0.2 -5.3 68 -2 -2 1012.5 967.6
08 16.03 СВ 1-2
{3}
н/о н/о +0.5 -5.7 63 -1 -1 1011.8 967.0
09 16.03 СВ 2-4
{4}
55 км 10/0
[As trans]
+2.1 -5.3 58 -1 +1 1010.4 965.9
11 16.03 В 3-4
{4}
н/о н/о +5.4 -2.6 56 +3 +3 1006.6 962.8
10 16.03 С 1-2
{3}
н/о н/о +3.7 -4.7 54 +3 +3 1008.8 964.7
12 16.03 В 2-3
{4}
55 км 10/0
[As trans]
+7.0 -1.9 53 +5 +7 1004.6 961.2
13 16.03 штиль 0-1
{4}
н/о н/о +9.4 -0.5 50 +9 +9 1002.6 959.6
14 16.03 ЮЗ 3-6
{6}
н/о н/о +8.5 -0.2 54 +6 +6 1001.1 958.0
15 16.03 З 1-3
{6}
55 км 10/0
[Ac As]
+8.9 +0.1 54 +9 +9 999.4 956.4
17 16.03 ЮЗ 4-6
{7}
н/о н/о +7.8 -0.4 56 +5 +5 995.6 952.6
16 16.03 ЮЗ 3-6
{6}
н/о н/о +8.1 +0.1 57 +6 +6 997.0 954.1
18 16.03 Ю 2-3
{7}
55 км 10/0
[Ac As]
+6.3 -0.4 62 +4 +4 994.6 951.5 -0.8 +10.0
19 16.03 З 4-6
{6}
н/о н/о +7.0 +0.2 62 +4 +4 993.7 950.7
20 16.03 СЗ 1-3
{7}
н/о н/о +5.5 -0.5 65 +5 +5 994.1 950.8
21 16.03 штиль 0
{3}
н/о н/о +4.0 -2.0 65 +3 +3 993.7 950.2
23 16.03 З 2-3
{4}
н/о н/о +2.0 -5.8 56 -1 -1 993.5 949.7
22 16.03 штиль 0-2
{3}
н/о н/о +3.9 -4.5 54 +3 +3 993.7 950.2
00 17.03 З 1-2
{7}
65 км ясно +1.0 -7.7 52 -0 -0 992.7 948.8
01 17.03 штиль 0
{3}
н/о н/о +0.2 -7.7 55 -0 -0 991.5 947.6
02 17.03 С 1-1
{2}
н/о н/о +0.1 -8.1 54 -1 -1 990.8 946.8
03 17.03 штиль 0-1
{2}
55 км ясно -0.3 -6.7 62 -1 -1 990.0 946.0
05 17.03 В 1-3
{3}
н/о н/о -0.2 -5.7 66 -2 -2 988.4 944.6
04 17.03 штиль 0-2
{3}
н/о н/о -0.4 -6.4 64 -1 -1 989.3 945.4
06 17.03 С 1-2
{4}
65 км 3/0
[Ac lent Ci fib]
0.0 -6.1 63 -2 -1 987.9 944.1 -0.8 +7.3
07 17.03 СВ 1-1
{2}
н/о н/о +1.4 -6.4 56 0 0 987.3 943.7
08 17.03 СВ 1-2
{3}
н/о н/о +3.5 -7.0 46 +3 +3 986.1 942.9
09 17.03 З 4-6
{8}
>70 км 1/0
[Ac lent]
+4.9 -6.9 42 +2 +4 985.7 942.7
11 17.03 З 4-9
{9}
н/о н/о +5.8 -6.7 40 +3 +3 984.3 941.6
10 17.03 З 4-7
{10}
н/о н/о +5.3 -7.8 38 +2 +2 984.9 942.1
12 17.03 ЮЗ 4-7
{10}
>70 км 8/6 1500 м
[Sc diur, vesp Ac cuf Ci fib]
+5.2 -5.1 47 +2 +3 985.3 942.4
13 17.03 ЮЗ 6-10
{10}
н/о н/о +5.7 -4.4 48 +1 +1 985.8 942.9
14 17.03 ЮЗ 5-7
{8}
н/о н/о +5.5 -5.2 46 +2 +2 986.6 943.7
15 17.03 ЮЗ 4-7
{9}
>70 км 4/0
[As trans Ci fib]
+4.2 -5.0 51 +1 +2 987.5 944.4
16 17.03 З 4-6
{8}
н/о н/о +4.0 -5.4 50 0 0 988.4 945.1
17 17.03 ЮЗ 2-4
{6}
н/о н/о +3.2 -4.9 55 +1 +1 989.5 946.1
18 17.03 штиль 0
{10}
н/о н/о +1.2 -4.8 64 +1 +1 990.5 946.8 -0.2 +6.4
19 17.03 З 1-2
{3}
н/о н/о +1.4 -6.1 57 0 0 991.0 947.3
20 17.03 СЗ 1-2
{2}
н/о н/о +1.2 -6.8 55 0 0 991.1 947.3
21 17.03 штиль 0
{1}
н/о н/о -1.4 -5.6 73 -2 -2 991.5 947.3
22 17.03 штиль 0-1
{2}
н/о н/о -1.6 -6.1 71 -2 -2 991.6 947.4
23 17.03 штиль 0-1
{1}
н/о н/о -2.3 -6.3 74 -3 -3 991.4 947.0
00 18.03 СВ 1-2
{3}
>70 км ясно -2.6 -6.1 77 -5 -5 991.3 947.0
01 18.03 штиль 0
{1}
н/о н/о -2.9 -6.6 76 -4 -4 991.3 946.9
02 18.03 штиль 0 н/о н/о -3.0 -6.4 77 -4 -4 991.0 946.6
03 18.03 штиль 0 >70 км ясно -3.3 -6.8 77 -4 -4 991.2 946.7
04 18.03 штиль 0
{1}
н/о н/о -2.5 -6.8 72 -3 -3 991.3 946.9
05 18.03 штиль 0 н/о н/о -3.3 -6.2 80 -4 -4 992.0 947.5
06 18.03 штиль 0
{1}
65 км 10/0
[]
-2.9 -5.8 80 -4 -4 992.6 948.1 -3.4 +1.6
07 18.03 С 1-1
{1}
н/о н/о -2.2 -5.6 77 -4 -4 993.1 948.7
08 18.03 штиль 0
{1}
н/о н/о -1.0 -5.2 73 -2 -2 993.4 949.2
09 18.03 З 1-1
{1}
65 км 10/0
[As trans]
-0.2 -5.1 70 -2 -0 993.9 949.8
10 18.03 З 3-4
{4}
н/о н/о +1.6 -9.0 45 -2 -2 994.0 950.1
11 18.03 З 4-6
{6}
н/о н/о +2.5 -9.1 42 -2 -2 994.5 950.8
12 18.03 ЮЗ 2-4
{6}
65 км 4/4 1500 м
[Cu hum]
+3.4 -10.5 35 +1 +5 995.0 951.4
14 18.03 З 3-5
{7}
н/о н/о +3.0 -10.2 37 0 0 996.4 952.7
13 18.03 З 4-5
{6}
н/о н/о +3.2 -10.0 37 -1 -1 995.6 952.0
15 18.03 З 4-6
{6}
н/о н/о +2.4 -9.4 41 -2 -2 997.3 953.5
16 18.03 З 4-5
{6}
н/о н/о +1.6 -8.2 48 -3 -3 998.5 954.4
17 18.03 З 2-3
{5}
н/о н/о +0.8 -10.3 43 -2 -2 999.7 955.4
18 18.03 З 1-2
{7}
н/о н/о -0.6 -8.5 55 -2 -2 1000.7 956.3 -2.9 +4.4
20 18.03 З 2-2
{2}
н/о н/о -2.5 -8.3 64 -6 -6 1002.5 957.7
19 18.03 З 1-2
{2}
н/о н/о -0.9 -9.0 54 -2 -2 1001.6 957.1
21 18.03 З 1-2
{2}
н/о н/о -3.2 -9.1 64 -5 -5 1003.1 958.1
22 18.03 штиль 0-1
{2}
н/о н/о -4.4 -10.1 64 -5 -5 1003.8 958.5
23 18.03 штиль 0 н/о н/о -5.4 -9.7 72 -6 -6 1004.4 959.0
00 19.03 штиль 0
{2}
>70 км ясно -6.0 -9.4 77 -7 -7 1004.8 959.3
02 19.03 штиль 0
{1}
н/о н/о -7.3 -10.6 77 -8 -8 1005.1 959.3
01 19.03 С 1-1
{2}
н/о н/о -6.8 -10.4 75 -9 -9 1005.2 959.5
03 19.03 штиль 0
{1}
>70 км ясно -8.1 -11.0 80 -9 -9 1005.5 959.6
04 19.03 штиль 0 н/о н/о -8.7 -11.6 79 -9 -9 1005.1 959.1
05 19.03 штиль 0 н/о н/о -9.2 -12.1 79 -10 -10 1005.5 959.4
06 19.03 штиль 0
{2}
>70 км ясно -9.4 -12.3 79 -10 -10 1005.5 959.3 -9.6 -0.6
08 19.03 штиль 0
{1}
н/о н/о -7.6 -12.1 70 -8 -8 1004.2 958.4
07 19.03 штиль 0-1
{1}
н/о н/о -8.5 -12.5 73 -9 -9 1005.0 959.0
09 19.03 ЮВ 1-1
{1}
>70 км 8/0
[]
-6.1 -11.5 66 -8 -6 1002.9 957.4
10 19.03 штиль 0
{2}
н/о н/о -5.4 -10.9 65 -6 -6 1002.1 956.8
11 19.03 штиль 0 н/о н/о -4.0 -9.9 63 -5 -5 1001.2 956.1
12 19.03 штиль 0-1
{2}
>70 км 10/0
[As trans Ci fib]
-2.2 -9.4 58 -3 0 1000.0 955.3
13 19.03 штиль 0-2
{2}
н/о н/о -0.6 -9.7 50 -1 -1 998.8 954.4
14 19.03 штиль 0-1
{1}
н/о н/о +0.5 -10.0 45 0 0 997.8 953.6
15 19.03 З 3-4
{4}
65 км 10/0
[As op]
+1.6 -11.1 38 -2 -2 997.3 953.3
16 19.03 З 1-2
{4}
н/о н/о +0.5 -7.0 57 -1 -1 997.6 953.4
17 19.03 ЮВ 1-3
{3}
н/о н/о -0.3 -4.7 72 -2 -2 997.5 953.2
18 19.03 СВ 1-2
{4}
30 км слабый снег 10/10 1500 м
[Frnb]
-1.0 -4.4 78 -3 -3 997.0 952.6 -9.4 +1.8
19 19.03 штиль 0-2
{2}
н/о н/о -0.3 -5.8 66 -1 -1 996.5 952.3
20 19.03 В 1-2
{2}
н/о н/о -0.3 -5.6 67 -2 -2 996.2 952.0
21 19.03 В 2-3
{3}
н/о н/о -0.6 -4.2 77 -4 -4 996.0 951.7
22 19.03 В 2-3
{3}
н/о н/о -0.8 -4.2 78 -4 -4 995.7 951.5
23 19.03 В 2-3
{3}
н/о н/о -1.2 -3.7 83 -5 -5 995.4 951.1
00 20.03 СВ 1-3
{3}
30 км {снег} 10/0
[As op]
-1.1 -3.6 83 -3 -3 995.1 950.8
01 20.03 СВ 2-3
{3}
н/о н/о -1.0 -3.2 85 -5 -5 994.8 950.6
02 20.03 СВ 1-3
{3}
н/о н/о -1.5 -2.9 90 -4 -4 994.6 950.3
03 20.03 СВ 1-2
{3}
30 км 10/0
[Ac As]
-1.3 -3.1 88 -3 -3 994.5 950.2
04 20.03 СВ 1-2
{2}
н/о н/о -1.6 -3.7 86 -4 -4 994.2 949.8
05 20.03 СВ 1-2
{3}
н/о н/о -1.8 -3.7 87 -4 -4 994.5 950.1
06 20.03 штиль 0-1
{3}
н/о н/о -2.3 -3.9 89 -3 -3 994.7 950.2 -2.8 -0.1
07 20.03 штиль 0-1
{2}
н/о н/о -0.8 -3.8 80 -2 -2 994.3 950.1
08 20.03 СВ 1-2
{2}
н/о н/о +0.4 -4.4 70 -1 -1 994.0 950.0
09 20.03 СВ 1-2
{2}
55 км 1/0
[Ac cuf]
+1.2 -4.4 66 -0 +4 993.7 949.8
11 20.03 В 3-4
{4}
н/о н/о +3.6 -3.2 61 0 0 992.7 949.2
10 20.03 В 3-4
{4}
н/о н/о +2.5 -3.2 66 -1 -1 993.0 949.3
12 20.03 В 2-3
{5}
н/о н/о +5.6 -2.7 55 +4 +4 992.4 949.2
13 20.03 ЮВ 2-3
{4}
н/о н/о +5.6 -3.4 52 +4 +4 991.8 948.7
14 20.03 ЮВ 2-4
{4}
н/о н/о +4.8 -3.7 54 +3 +3 991.5 948.3
15 20.03 В 3-4
{4}
30 км 10/0
[As trans]
+4.2 -2.8 60 +1 +2 991.3 948.0
17 20.03 В 2-3
{5}
н/о н/о +3.7 -2.7 63 +1 +1 989.8 946.5
16 20.03 В 2-4
{5}
н/о н/о +4.1 -2.9 60 +2 +2 990.6 947.3
18 20.03 В 1-2
{5}
30 км 10/0
[As op]
+1.9 -0.8 82 0 0 989.5 945.9 -2.5 +7.3
19 20.03 В 2-3
{3}
н/о н/о +0.8 -0.6 90 -3 -3 988.6 944.9
20 20.03 СВ 1-3
{3}
н/о н/о +1.0 -0.4 90 -1 -1 987.8 944.1
21 20.03 В 2-4
{4}
н/о н/о +1.0 -0.4 90 -3 -3 986.7 943.1
23 20.03 СВ 1-2
{3}
н/о н/о +0.7 -0.6 91 -1 -1 985.2 941.7
22 20.03 СВ 1-3
{3}
н/о н/о +0.8 -0.5 91 -1 -1 986.0 942.4
00 21.03 С 1-3
{4}
30 км 10/0
[As op]
+0.8 -0.6 90 -1 -1 984.8 941.2
01 21.03 С 1-2
{3}
н/о н/о +0.4 -1.2 89 -2 -2 984.7 941.1
02 21.03 СВ 1-3
{4}
н/о н/о -0.2 -1.5 91 -2 -2 984.4 940.7
03 21.03 СВ 2-3
{3}
30 км 10/0
[As op]
-0.5 -1.8 91 -4 -4 983.8 940.1
05 21.03 В 3-4
{4}
н/о н/о -0.8 -2.3 90 -6 -6 983.5 939.7
04 21.03 СВ 1-3
{3}
н/о н/о -0.7 -1.8 92 -3 -3 983.8 940.1
06 21.03 В 2-4
{4}
30 км туман на расстоянии 5/3 300 м
[Cb cap Ac trans Ci sp]
-1.0 -2.4 90 -5 -5 983.5 939.7 -1.0 +1.9
07 21.03 В 3-5
{5}
н/о н/о -0.3 -2.2 87 -5 -5 983.3 939.6
08 21.03 СВ 2-4
{4}
н/о н/о +1.1 -2.1 79 -2 -2 983.1 939.7
09 21.03 В 3-4
{4}
55 км 3/0
[As trans Ci fib]
+1.4 -1.7 80 -3 -0 983.3 939.9
11 21.03 штиль 0
{5}
н/о н/о +5.4 -0.2 67 +5 +5 983.7 940.9
10 21.03 В 2-4
{4}
н/о н/о +3.6 -1.3 70 +1 +1 983.1 940.1
12 21.03 З 4-5
{5}
н/о н/о +5.7 -5.3 45 +2 +2 984.2 941.4
13 21.03 З 3-5
{6}
н/о н/о +5.3 -6.5 42 +3 +3 985.0 942.1
14 21.03 З 3-4
{6}
н/о н/о +5.9 -5.7 43 +3 +3 985.5 942.7
15 21.03 ЮЗ 2-3
{4}
н/о н/о +5.7 -6.5 41 +4 +4 986.3 943.4
16 21.03 З 2-3
{4}
н/о н/о +5.0 -6.5 43 +3 +3 987.3 944.3
17 21.03 штиль 0-1
{4}
н/о н/о +4.3 -6.2 46 +4 +4 988.4 945.2
18 21.03 ЮЗ 1-2
{6}
55 км 10/0
[As trans]
+2.7 -5.4 55 +2 +2 989.5 946.0 -1.1 +6.0
19 21.03 штиль 0-1
{1}
н/о н/о +1.4 -5.3 61 +1 +1 990.7 946.9
20 21.03 штиль 0
{1}
н/о н/о +0.5 -6.1 61 -0 -0 991.7 947.8
21 21.03 штиль 0 н/о н/о -0.5 -5.1 71 -1 -1 992.6 948.5
22 21.03 штиль 0
{1}
н/о н/о -1.5 -5.2 76 -2 -2 993.9 949.5
23 21.03 штиль 0 н/о н/о -2.4 -5.5 79 -3 -3 994.9 950.4
00 22.03 штиль 0
{1}
55 км 3/0
[As trans]
-3.1 -5.6 83 -4 -4 995.8 951.2
01 22.03 штиль 0 н/о н/о -3.6 -5.8 85 -5 -5 996.6 951.9
02 22.03 штиль 0-1
{1}
н/о н/о -4.1 -6.7 82 -5 -5 997.5 952.6
03 22.03 штиль 0 55 км 3/0
[As trans]
-4.4 -6.6 85 -5 -5 998.4 953.4
04 22.03 З 1-2
{2}
н/о н/о -5.2 -6.9 88 -8 -8 999.5 954.3
05 22.03 С 1-2
{3}
н/о н/о -0.4 -7.2 60 -2 -2 999.4 955.0
06 22.03 С 1-2
{3}
>70 км 3/0
[]
-2.3 -7.3 69 -4 -4 1000.4 955.6 -5.2 +2.7
07 22.03 штиль 0-1
{2}
н/о н/о -1.6 -7.4 65 -2 -2 1001.2 956.5
08 22.03 ЮЗ 3-5
{5}
н/о н/о +1.0 -9.3 46 -3 -3 1001.3 957.1
09 22.03 ЮЗ 4-6
{7}
н/о н/о +1.9 -8.2 47 -2 -2 1002.4 958.2
10 22.03 З 5-6
{7}
н/о н/о +2.8 -7.3 47 -2 -2 1003.2 959.1
11 22.03 З 3-5
{7}
н/о н/о +2.5 -7.6 47 -1 -1 1004.5 960.3
12 22.03 З 4-6
{7}
55 км 10/0
[As trans]
+2.6 -7.5 47 -1 0 1005.5 961.3
14 22.03 З 4-5
{6}
н/о н/о +2.9 -7.5 46 -1 -1 1007.6 963.4
13 22.03 З 4-5
{6}
н/о н/о +2.6 -6.5 51 -2 -2 1006.7 962.5
15 22.03 З 4-6
{7}
55 км 10/0
[As trans]
+3.1 -7.9 44 -1 -0 1008.4 964.1
16 22.03 З 4-6
{7}
н/о н/о +3.2 -8.7 41 -1 -1 1009.5 965.2
17 22.03 З 4-6
{6}
н/о н/о +2.4 -8.6 44 -2 -2 1010.4 966.0
18 22.03 З 2-4
{7}
>70 км ясно +1.1 -8.4 49 -2 -2 1012.1 967.4 -2.7 +3.7
20 22.03 З 1-2
{4}
н/о н/о -0.6 -8.5 55 -2 -2 1014.4 969.3
19 22.03 З 3-5
{5}
н/о н/о +0.9 -9.6 45 -3 -3 1013.0 968.2
21 22.03 штиль 0-2
{2}
н/о н/о -0.7 -8.8 54 -1 -1 1015.3 970.2
22 22.03 З 1-2
{2}
н/о н/о -2.1 -8.5 62 -4 -4 1016.8 971.4
23 22.03 З 1-2
{2}
н/о н/о -1.6 -9.0 57 -3 -3 1017.7 972.4
00 23.03 З 2-2
{5}
65 км ясно -1.4 -9.5 54 -5 -5 1018.3 972.9
02 23.03 З 2-3
{3}
н/о н/о -2.0 -9.4 57 -5 -5 1019.4 973.8
01 23.03 С 1-3
{5}
н/о н/о -1.9 -9.7 55 -3 -3 1018.9 973.4
03 23.03 штиль 0 65 км ясно -1.8 -9.4 56 -2 -2 1019.9 974.4
04 23.03 З 2-3
{3}
н/о н/о -1.6 -9.7 54 -5 -5 1020.0 974.5
05 23.03 З 2-5
{5}
н/о н/о -1.5 -10.3 51 -5 -5 1020.6 975.1
06 23.03 штиль 0
{5}
65 км 5/0
[]
-2.5 -10.3 55 -3 -3 1021.6 975.9 -2.7 +1.2
07 23.03 -1
{1}
н/о н/о -2.1 -10.1 54 1021.8 976.2

 

Местоположение метеостанции Fagernes (Норвегия): широта 60.99 долгота 9.24 высота над уровнем моря 365 м.

В архиве по умолчанию представлена погода в Fagernes за последнюю неделю. Архивные данные за месяц целиком и за предыдущие месяцы, начиная с января 2011 года, Вы можете получить, выбрав интересующий диапазон дат из раскрывающегося списка и нажав кнопку "Ввод!".

Внимание! Время в таблицах - всемирное. Для получения местного времени необходимо прибавить поправку, которая в Fagernes равна 1 ч.

Смотрите также архив погоды в соседних городах и на ближайших метеорологических станциях:

Погода в Fagernes Lufthavn (Норвегия) (4 км)
Погода в Loken i Volbu (Норвегия) (17 км)
Погода в Beitostolen II (Норвегия) (34 км)
Погода в Hemsedal II (Норвегия) (38 км)
Погода в Hemsedal-Hollekolten (Норвегия) (41 км)
Погода в Vest-Torpa II (Норвегия) (43 км)
Погода в Nesbyen-Todokk (Норвегия) (47 км)
Погода в Skabu (Норвегия) (61 км)
Погода в Filefjell-Kyrkjestolane (Норвегия) (64 км)
Погода в Lillehammer (Норвегия) (68 км)

Пояснения к столбцам:

Ветер - указаны скорость ветра в м/с - средняя за 10 мин, порывы в срок и между сроками (в фигурных скобках) и направление, откуда дует ветер: С - северный, СВ - северо-восточный, В - восточный, ЮВ - юго-восточный, Ю - южный, ЮЗ - юго-западный, З - западный, СЗ - северо-западный.
Видимость - горизонтальная дальность видимости в метрах или километрах. При видимости от 1 до 10 км при отсутствии осадков обычно наблюдается дымка, при ухудшении видимости до 1 км и менее - туман. В сухую погоду видимость может ухудшаться дымом, пылью или мглою.
Явления - указаны атмосферные явления, наблюдавшиеся в срок или в последний час перед сроком; фигурными скобками обозначены явления, наблюдавшиеся между сроками (за 1-3 часа до срока); квадратными скобками обозначены град или гололедные отложения с указанием их диаметра в мм.
Облачность - указаны через наклонную черту общая и нижняя облачность в баллах и высота нижней границы облаков в метрах; квадратными скобками обозначены формы облаков: Ci - перистые, Cs - перисто-слоистые, Cc - перисто-кучевые, Ac - высококучевые, As - высокослоистые, Sc - слоисто-кучевые, Ns - слоисто-дождевые, Cu - кучевые, Cb - кучево-дождевые. Подробнее классификацию облаков см. в Атласе облаков (PDF).
T - Температура воздуха - температура, измеренная на высоте 2 м над землей.
Td - Температура точки росы - температура, при понижении до которой содержащийся в воздухе водяной пар достигнет насыщения.
f - Относительная влажность воздуха - влажноcть воздуха, измеренная на высоте 2 м над землей.
Te - Эффективная температура - температура, которую ощущает одетый по сезону человек в тени. Характеристика душности погоды. При расчете учитывается влияние влажности воздуха и скорости ветра на теплоощущения человека.
Tes - Эффективная температура на солнце - температура, которую ощущает человек, с поправкой на солнечный нагрев. Характеристика знойности погоды. Зависит от высоты солнца над горизонтом, облачности и скорости ветра. Ночью, в пасмурную погоду, а также при ветре 12 м/с и более поправка равна нулю.
P - Атмосферное давление - приведенное к уровню моря атмосферное давление.
Po - Атмосферное давление - измеренное на уровне метеостанции атмосферное давление.
Tmin - Минимальная температура - минимум температуры воздуха на высоте 2 м над землей.
Tmax - Максимальная температура - максимум температуры воздуха на высоте 2 м над землей.
R - Количество осадков - Количество выпавших осадков, мм. При наведении курсора мыши на число - период времени, за который выпало указанное количество осадков.
S - Снежный покров - Высота снежного покрова, см. При наведении курсора мыши на число - состояние снежного покрова и степень покрытия местности в баллах.